"Pseudo-MPEC" for P21XwVC

Created 2024 Sep 7 13:22:19 UT using Find_Orb

Click here for an explanation of pseudo-MPECs

 
 Astrometry: 
     P21XwVC* C2024 08 27.37534321 58 08.138-09 31 07.44   ~8RBq 22.09wXNEOCPF52
     P21XwVC  C2024 08 27.39645821 58 06.512-09 31 46.67   ~8RBq 21.71wXNEOCPF52
     P21XwVC  C2024 08 27.40702921 58 05.694-09 32 06.27   ~8RBq 22.25wXNEOCPF52

Station data:
(F52) Pan-STARRS 2, Haleakala  (N20.707382 W156.255910)  US/Hawaii.
   Observers J. Bulger, T. Dukes, T. Lowe, A. Schultz, M. Willman. Measurers
   K. Chambers, S. Chastel, T. de Boer, L. Denneau, J. Fairlamb, H.
   Flewelling, M. Huber, C.-C. Lin, E. Magnier, Y. Ramanjooloo, R. Wainscoat,
   R. Weryk. 1.8-m Ritchey-Chrétien + CCD.

Orbital elements:  P21XwVC
   Perihelion 2025 Feb 25.92702 +/- 169 TT = 22:14:54 (JD 2460732.42702)
Epoch 2024 Aug 27.0 TT = JDT 2460549.5   Earth MOID: 0.3848      AutoNEOCP
M 282.12983227 +/- 60               (J2000 ecliptic)
n   0.42568981 +/- 0.281            Peri.  289.73403 +/- 90
a   1.75014436 +/- 0.77             Node   154.08175 +/- 29
e   0.3038618 +/- 0.275             Incl.   26.06120 +/- 27
P   2.315/845.670d         H 20.78  G  0.15   U 11.9  SR
q 1.21834233 +/- 0.637    Q 2.28194640 +/- 31.3
From 3 observations 2024 Aug. 27 (45.6 min); mean residual 0".01
Residuals in arcseconds: 
240827 F52  .01-  .00     240827 F52  .02+  .01-    240827 F52  .01-  .01+    

Ephemerides (geocentric):
Date (UTC) HH   RA             Dec           delta  r     elong  mag " sig PA
---- --------  ------------   ------------  ------ ------ -----  --- --------
2024 09 07 13  21 44 51.012   -15 20 04.28  .77762 1.7536 158.2 22.2  33d  83
2024 09 07 14  21 44 48.214   -15 21 21.32  .77764 1.7534 158.1 22.2  33d  83
2024 09 07 15  21 44 45.417   -15 22 38.34  .77766 1.7532 158.1 22.2  33d  83
2024 09 07 16  21 44 42.623   -15 23 55.34  .77768 1.7531 158.0 22.2  33d  83
2024 09 07 17  21 44 39.830   -15 25 12.31  .77770 1.7529 158.0 22.2  33d  83
2024 09 07 18  21 44 37.040   -15 26 29.26  .77772 1.7527 157.9 22.2  33d  83
2024 09 07 19  21 44 34.253   -15 27 46.19  .77774 1.7526 157.8 22.2  33d  83
2024 09 07 20  21 44 31.467   -15 29 03.10  .77776 1.7524 157.8 22.2  33d  83
2024 09 07 21  21 44 28.684   -15 30 19.98  .77778 1.7522 157.7 22.2  33d  83
2024 09 07 22  21 44 25.903   -15 31 36.84  .77781 1.7521 157.7 22.2  33d  83
2024 09 07 23  21 44 23.124   -15 32 53.67  .77783 1.7519 157.6 22.2  33d  83
2024 09 08 00  21 44 20.347   -15 34 10.49  .77785 1.7518 157.5 22.2  32d  83
2024 09 08 01  21 44 17.573   -15 35 27.27  .77787 1.7516 157.5 22.2  32d  83
2024 09 08 02  21 44 14.801   -15 36 44.04  .77790 1.7514 157.4 22.2  32d  83
2024 09 08 03  21 44 12.031   -15 38 00.78  .77792 1.7513 157.4 22.2  32d  83
2024 09 08 04  21 44 09.263   -15 39 17.50  .77795 1.7511 157.3 22.2  32d  83
2024 09 08 05  21 44 06.498   -15 40 34.19  .77797 1.7509 157.2 22.2  32d  82
2024 09 08 06  21 44 03.735   -15 41 50.85  .77800 1.7508 157.2 22.2  32d  82
2024 09 08 07  21 44 00.974   -15 43 07.50  .77802 1.7506 157.1 22.2  32d  82
2024 09 08 08  21 43 58.216   -15 44 24.12  .77805 1.7504 157.1 22.2  32d  82
2024 09 08 09  21 43 55.460   -15 45 40.71  .77808 1.7503 157.0 22.2  32d  82
2024 09 08 10  21 43 52.707   -15 46 57.28  .77810 1.7501 156.9 22.2  32d  82
2024 09 08 11  21 43 49.955   -15 48 13.82  .77813 1.7499 156.9 22.2  32d  82
2024 09 08 12  21 43 47.206   -15 49 30.34  .77816 1.7498 156.8 22.2  32d  82
2024 09 08 13  21 43 44.460   -15 50 46.83  .77819 1.7496 156.8 22.2  32d  82
2024 09 08 14  21 43 41.716   -15 52 03.30  .77822 1.7494 156.7 22.2  32d  82
2024 09 08 15  21 43 38.974   -15 53 19.74  .77825 1.7493 156.7 22.2  32d  82
2024 09 08 16  21 43 36.234   -15 54 36.15  .77828 1.7491 156.6 22.2  32d  82
2024 09 08 17  21 43 33.497   -15 55 52.54  .77831 1.7490 156.5 22.2  32d  82
2024 09 08 18  21 43 30.763   -15 57 08.91  .77834 1.7488 156.5 22.2  32d  82
2024 09 08 19  21 43 28.031   -15 58 25.24  .77837 1.7486 156.4 22.2  32d  82
2024 09 08 20  21 43 25.301   -15 59 41.55  .77840 1.7485 156.4 22.2  32d  82
2024 09 08 21  21 43 22.574   -16 00 57.84  .77843 1.7483 156.3 22.2  32d  82
2024 09 08 22  21 43 19.849   -16 02 14.09  .77847 1.7481 156.2 22.2  32d  82
2024 09 08 23  21 43 17.127   -16 03 30.32  .77850 1.7480 156.2 22.2  32d  82
2024 09 09 00  21 43 14.407   -16 04 46.53  .77853 1.7478 156.1 22.2  32d  82
2024 09 09 01  21 43 11.689   -16 06 02.70  .77857 1.7476 156.1 22.2  32d  82
2024 09 09 02  21 43 08.974   -16 07 18.85  .77860 1.7475 156.0 22.2  32d  82
2024 09 09 03  21 43 06.262   -16 08 34.97  .77864 1.7473 155.9 22.2  32d  82
2024 09 09 04  21 43 03.552   -16 09 51.07  .77867 1.7471 155.9 22.2  32d  83
2024 09 09 05  21 43 00.845   -16 11 07.14  .77871 1.7470 155.8 22.2  32d  83
2024 09 09 06  21 42 58.140   -16 12 23.17  .77874 1.7468 155.8 22.2  32d  83
2024 09 09 07  21 42 55.437   -16 13 39.19  .77878 1.7466 155.7 22.2  32d  83
2024 09 09 08  21 42 52.738   -16 14 55.17  .77882 1.7465 155.7 22.2  32d  83
2024 09 09 09  21 42 50.040   -16 16 11.12  .77885 1.7463 155.6 22.2  32d  83
2024 09 09 10  21 42 47.346   -16 17 27.05  .77889 1.7462 155.5 22.2  32d  83
2024 09 09 11  21 42 44.653   -16 18 42.95  .77893 1.7460 155.5 22.2  32d  83
2024 09 09 12  21 42 41.964   -16 19 58.82  .77897 1.7458 155.4 22.2  32d  83